Precipitable_Water
0.50 0.49 0.50 0.55 0.62 0.75 0.83 0.92 1.06 1.14 1.03 0.95 0.80 0.70 0.74 0.73 0.79 0.78 0.55 0.57 0.69 0.92 0.86 0.78 0.70 0.61 0.62 0.50 0.53 0.50 0.33 0.24 0.25 0.25 0.27 0.34 0.38 0.46 0.55 0.48 0.49 0.51 0.58 0.82 1.00
0.54 0.52 0.50 0.51 0.51 0.59 0.69 0.79 0.92 1.10 1.12 1.02 0.91 0.72 0.72 0.76 0.72 0.60 0.76 0.79 0.85 0.88 0.75 0.64 0.55 0.57 0.48 0.45 0.49 0.41 0.31 0.29 0.36 0.35 0.32 0.37 0.41 0.45 0.43 0.44 0.43 0.48 0.63 0.81 0.89
0.54 0.53 0.54 0.54 0.50 0.52 0.60 0.74 0.88 0.93 1.15 1.09 0.97 0.76 0.72 0.79 0.58 0.51 0.74 0.85 0.92 0.92 0.78 0.68 0.67 0.58 0.45 0.46 0.46 0.43 0.33 0.39 0.38 0.41 0.47 0.43 0.40 0.51 0.45 0.39 0.41 0.42 0.51 0.65 0.70
0.62 0.58 0.59 0.54 0.56 0.50 0.50 0.65 0.81 0.90 1.00 1.22 1.03 0.80 0.76 0.74 0.30 0.80 0.99 0.95 0.95 0.99 0.80 0.61 0.63 0.51 0.43 0.37 0.43 0.35 0.42 0.42 0.40 0.41 0.47 0.43 0.48 0.43 0.49 0.47 0.53 0.51 0.56 0.58 0.65
0.64 0.62 0.59 0.60 0.58 0.56 0.52 0.52 0.68 0.85 0.92 1.09 1.14 0.87 0.70 0.52 0.50 0.90 0.95 1.06 1.08 1.00 0.79 0.64 0.53 0.50 0.40 0.41 0.42 0.39 0.39 0.44 0.46 0.42 0.47 0.48 0.42 0.44 0.45 0.55 0.55 0.53 0.54 0.55 0.61
0.67 0.66 0.65 0.62 0.57 0.55 0.52 0.53 0.54 0.69 0.85 1.06 1.09 1.01 0.63 0.38 0.71 0.82 0.87 0.92 1.00 0.99 0.88 0.85 0.65 0.55 0.46 0.42 0.41 0.46 0.45 0.45 0.46 0.43 0.47 0.40 0.39 0.43 0.44 0.53 0.51 0.50 0.50 0.53 0.57
0.70 0.66 0.65 0.63 0.62 0.56 0.54 0.53 0.55 0.60 0.82 1.03 1.07 0.94 0.65 0.45 0.70 0.77 0.78 0.76 0.83 0.88 0.84 0.94 0.91 0.66 0.56 0.45 0.56 0.50 0.39 0.40 0.40 0.40 0.38 0.42 0.31 0.33 0.41 0.41 0.41 0.44 0.45 0.46 0.53
0.66 0.68 0.66 0.64 0.63 0.60 0.58 0.54 0.57 0.52 0.75 1.01 1.08 0.89 0.60 0.72 0.77 0.72 0.73 0.75 0.88 0.93 0.90 1.02 1.01 0.77 0.64 0.61 0.51 0.40 0.41 0.28 0.32 0.36 0.37 0.38 0.20 0.32 0.37 0.39 0.38 0.38 0.38 0.37 0.39
0.66 0.66 0.66 0.65 0.66 0.64 0.59 0.56 0.56 0.51 0.72 0.96 0.94 0.74 0.56 0.75 0.61 0.72 0.70 0.65 0.81 0.90 0.92 1.05 1.01 0.75 0.67 0.48 0.39 0.41 0.27 0.28 0.33 0.42 0.41 0.39 0.29 0.38 0.44 0.43 0.40 0.40 0.41 0.39 0.37
0.66 0.65 0.66 0.67 0.65 0.64 0.65 0.59 0.57 0.53 0.63 0.95 0.91 0.63 0.66 0.60 0.58 0.66 0.71 0.70 0.70 0.82 0.76 0.82 0.79 0.68 0.63 0.50 0.28 0.29 0.30 0.35 0.32 0.41 0.45 0.39 0.36 0.41 0.43 0.43 0.39 0.41 0.42 0.43 0.42
0.62 0.63 0.66 0.62 0.65 0.66 0.61 0.55 0.41 0.32 0.48 0.58 0.62 0.60 0.60 0.72 0.66 0.59 0.69 0.71 0.70 0.67 0.56 0.67 0.54 0.45 0.49 0.50 0.45 0.43 0.40 0.35 0.39 0.42 0.35 0.33 0.31 0.33 0.37 0.38 0.36 0.38 0.39 0.39 0.40
0.60 0.62 0.60 0.62 0.67 0.70 0.64 0.43 0.46 0.51 0.36 0.68 0.72 0.69 0.71 0.68 0.46 0.54 0.72 0.58 0.56 0.46 0.53 0.53 0.45 0.55 0.58 0.53 0.47 0.45 0.39 0.34 0.38 0.41 0.36 0.32 0.27 0.31 0.31 0.26 0.27 0.26 0.28 0.30 0.33
0.56 0.59 0.63 0.70 0.72 0.63 0.55 0.46 0.60 0.59 0.38 0.55 0.70 0.65 0.64 0.64 0.45 0.49 0.63 0.59 0.52 0.49 0.47 0.41 0.44 0.54 0.51 0.46 0.41 0.39 0.35 0.35 0.32 0.37 0.35 0.27 0.17 0.17 0.22 0.25 0.27 0.27 0.28 0.29 0.29
0.57 0.62 0.66 0.71 0.61 0.64 0.53 0.58 0.59 0.65 0.35 0.44 0.56 0.64 0.66 0.64 0.43 0.61 0.69 0.57 0.52 0.46 0.48 0.45 0.50 0.45 0.46 0.42 0.42 0.32 0.40 0.35 0.31 0.25 0.16 0.27 0.11 0.14 0.17 0.18 0.21 0.23 0.25 0.27 0.29
0.59 0.64 0.63 0.70 0.61 0.54 0.61 0.67 0.72 0.59 0.20 0.49 0.56 0.79 0.66 0.54 0.47 0.53 0.69 0.55 0.41 0.42 0.46 0.40 0.43 0.43 0.39 0.39 0.46 0.34 0.39 0.33 0.31 0.25 0.22 0.20 0.15 0.14 0.18 0.14 0.17 0.22 0.25 0.27 0.28
0.57 0.61 0.72 0.71 0.68 0.66 0.68 0.64 0.61 0.31 0.22 0.42 0.56 0.51 0.51 0.53 0.47 0.52 0.56 0.56 0.52 0.42 0.44 0.43 0.50 0.46 0.43 0.43 0.40 0.39 0.33 0.30 0.29 0.25 0.13 0.16 0.16 0.11 0.14 0.17 0.21 0.24 0.25 0.27 0.29
0.62 0.68 0.71 0.75 0.54 0.71 0.62 0.48 0.29 0.22 0.45 0.39 0.43 0.49 0.45 0.43 0.41 0.43 0.41 0.36 0.32 0.28 0.28 0.36 0.37 0.42 0.43 0.33 0.38 0.35 0.27 0.16 0.14 0.15 0.10 0.20 0.16 0.12 0.19 0.21 0.22 0.25 0.28 0.31 0.34
0.73 0.77 0.68 0.72 0.71 0.62 0.54 0.33 0.22 0.34 0.37 0.50 0.47 0.46 0.40 0.43 0.41 0.43 0.37 0.31 0.37 0.34 0.28 0.24 0.20 0.33 0.37 0.33 0.29 0.30 0.27 0.17 0.09 0.11 0.14 0.21 0.12 0.14 0.22 0.25 0.31 0.32 0.33 0.35 0.35
0.78 0.64 0.66 0.67 0.63 0.58 0.43 0.24 0.29 0.37 0.45 0.41 0.44 0.37 0.39 0.42 0.41 0.39 0.34 0.31 0.34 0.36 0.24 0.22 0.24 0.39 0.39 0.39 0.36 0.31 0.24 0.32 0.21 0.20 0.15 0.14 0.15 0.18 0.25 0.30 0.33 0.34 0.35 0.36 0.37
0.57 0.57 0.55 0.66 0.66 0.55 0.41 0.33 0.37 0.49 0.50 0.47 0.36 0.41 0.32 0.37 0.35 0.33 0.30 0.35 0.32 0.37 0.40 0.33 0.22 0.36 0.39 0.41 0.40 0.34 0.34 0.21 0.22 0.10 0.09 0.12 0.15 0.19 0.28 0.31 0.34 0.36 0.38 0.41 0.45
0.51 0.40 0.58 0.69 0.64 0.49 0.32 0.37 0.43 0.55 0.54 0.45 0.39 0.35 0.37 0.37 0.36 0.31 0.28 0.34 0.35 0.34 0.41 0.36 0.29 0.30 0.39 0.31 0.28 0.30 0.26 0.26 0.25 0.22 0.14 0.15 0.19 0.35 0.34 0.36 0.37 0.40 0.43 0.47 0.53
0.41 0.25 0.56 0.65 0.36 0.42 0.35 0.44 0.51 0.52 0.56 0.48 0.43 0.40 0.39 0.39 0.35 0.30 0.28 0.33 0.42 0.39 0.31 0.36 0.31 0.25 0.28 0.35 0.37 0.33 0.27 0.28 0.20 0.21 0.28 0.27 0.24 0.41 0.41 0.42 0.43 0.45 0.49 0.55 0.55
0.39 0.44 0.66 0.64 0.33 0.37 0.45 0.46 0.52 0.51 0.48 0.45 0.37 0.39 0.41 0.39 0.31 0.35 0.35 0.42 0.44 0.41 0.36 0.38 0.30 0.21 0.25 0.29 0.34 0.29 0.33 0.35 0.36 0.35 0.30 0.26 0.27 0.42 0.44 0.47 0.52 0.55 0.62 0.67 0.63
0.45 0.35 0.51 0.57 0.55 0.45 0.42 0.46 0.46 0.57 0.49 0.45 0.41 0.41 0.40 0.40 0.43 0.38 0.36 0.42 0.47 0.45 0.46 0.43 0.34 0.26 0.21 0.26 0.31 0.26 0.30 0.36 0.37 0.32 0.32 0.32 0.33 0.42 0.48 0.52 0.59 0.62 0.62 0.64 0.63
0.50 0.39 0.48 0.41 0.46 0.49 0.50 0.49 0.45 0.43 0.50 0.52 0.43 0.43 0.41 0.38 0.38 0.38 0.40 0.41 0.44 0.46 0.44 0.40 0.29 0.33 0.32 0.32 0.30 0.27 0.32 0.37 0.38 0.40 0.34 0.36 0.40 0.47 0.54 0.58 0.60 0.63 0.63 0.62 0.60
0.44 0.41 0.50 0.48 0.54 0.49 0.48 0.46 0.45 0.45 0.46 0.43 0.42 0.44 0.43 0.37 0.38 0.34 0.39 0.39 0.36 0.43 0.41 0.44 0.30 0.33 0.28 0.28 0.30 0.35 0.41 0.45 0.46 0.46 0.45 0.45 0.45 0.59 0.64 0.66 0.60 0.59 0.60 0.60 0.62
0.58 0.60 0.51 0.44 0.47 0.45 0.43 0.44 0.44 0.47 0.48 0.49 0.47 0.45 0.41 0.43 0.48 0.48 0.48 0.47 0.47 0.41 0.39 0.38 0.34 0.27 0.20 0.30 0.37 0.37 0.45 0.48 0.50 0.54 0.52 0.43 0.50 0.61 0.60 0.62 0.61 0.59 0.60 0.61 0.61
Wind_Speed
26 25 25 25 25 24 23 22 23 25 25 26 26 27 28 28 28 28 29 28 32 28 24 24 25 26 26 25 25 25 23 24 24 22 19 20 18 17 17 17 16 16 15 16 16
30 28 27 27 26 26 26 25 24 23 26 25 25 26 27 27 28 29 28 28 28 30 28 26 25 26 26 25 25 26 26 25 22 24 20 20 19 19 18 17 18 16 15 16 17
33 32 30 29 28 28 27 26 25 24 25 26 25 25 25 26 26 26 29 30 29 27 26 27 25 25 27 26 27 27 25 25 25 24 20 21 21 20 18 19 21 21 19 20 21
37 35 33 32 30 29 29 29 27 26 23 26 25 24 24 25 24 23 24 30 28 27 26 25 26 24 25 27 27 27 26 28 27 26 24 22 22 23 21 20 19 21 22 19 23
40 38 36 34 32 31 30 30 30 27 26 25 26 25 24 25 26 22 21 28 28 27 26 25 25 25 25 24 26 27 27 28 26 26 25 24 24 25 26 24 23 23 23 23 21
43 40 37 36 34 33 31 31 30 30 27 24 26 25 25 25 25 24 21 22 27 27 27 26 24 25 23 23 24 22 24 24 25 25 25 25 25 26 26 26 26 26 27 26 25
44 43 41 38 36 35 33 31 30 31 29 24 27 25 26 25 23 23 23 23 22 27 25 26 23 23 23 22 22 21 20 21 24 25 26 23 27 28 28 28 31 31 31 32 30
42 37 34 32 31 33 33 31 29 30 30 28 28 25 25 26 27 23 24 23 21 23 27 25 23 22 21 22 19 19 20 21 22 25 26 26 28 23 25 26 29 30 31 33 34
36 31 28 25 23 24 27 31 30 29 31 28 29 26 23 25 26 26 23 23 22 20 23 22 22 21 21 19 19 21 21 21 20 23 22 25 23 24 25 27 27 28 29 29 31
30 26 22 19 20 19 20 25 29 29 30 29 25 22 24 24 26 26 24 23 21 19 20 21 20 19 20 20 20 19 21 20 21 19 21 24 27 25 26 27 27 27 26 26 27
26 20 16 16 14 13 14 16 22 27 33 29 28 23 17 21 24 26 25 22 21 21 19 21 19 22 22 21 20 20 18 20 20 18 20 23 25 27 27 29 31 31 30 30 30
21 16 14 14 15 15 13 13 21 25 28 35 24 25 21 19 19 25 25 21 20 20 20 18 18 18 19 20 21 20 21 19 20 19 19 24 29 30 31 32 32 32 30 31 31
18 14 14 17 17 16 11 12 22 25 25 31 25 26 23 19 20 25 25 19 20 19 19 18 15 19 18 16 18 17 19 18 19 19 20 21 25 23 21 24 26 28 29 29 31
18 17 18 20 19 12 8 10 23 26 20 28 25 26 23 20 17 24 23 19 18 19 18 15 16 14 17 16 15 14 13 13 13 13 17 14 20 20 22 25 23 25 27 29 30
20 21 25 23 20 11 5 13 25 22 18 28 28 27 25 19 21 24 22 16 19 17 15 15 15 15 13 14 16 14 11 11 12 13 15 16 17 20 19 20 21 22 25 26 27
24 26 27 20 9 9 14 19 20 18 15 22 26 26 24 21 16 24 20 15 16 15 15 13 11 12 15 12 12 12 10 11 11 12 14 17 16 18 16 14 16 19 21 25 26
28 27 21 11 5 8 21 25 18 15 17 22 26 29 24 19 17 22 20 18 14 13 13 12 11 11 10 11 11 10 8 8 10 12 15 11 15 20 19 22 22 25 26 22 24
26 22 10 2 5 18 26 21 16 10 14 23 29 27 19 19 19 20 19 17 15 11 12 12 9 14 13 13 11 11 10 9 11 11 13 13 17 18 20 23 25 24 24 25 27
18 9 6 8 17 24 22 14 9 9 18 24 27 21 19 16 17 18 18 18 16 14 10 10 9 9 11 11 10 9 10 10 10 13 12 16 19 22 22 20 17 19 24 28 28
13 11 13 17 24 23 14 13 7 9 20 26 19 20 19 18 16 16 19 18 16 17 12 9 8 9 9 9 12 9 9 8 9 11 14 17 19 19 16 16 19 21 25 25 25
12 13 18 21 19 16 15 10 8 12 25 18 18 17 18 17 15 16 19 13 19 18 15 10 8 7 9 10 11 11 10 10 9 11 13 15 14 16 15 16 21 24 24 27 30
16 19 21 17 18 15 11 12 12 12 13 13 15 16 19 16 16 13 16 12 17 17 16 10 8 9 12 10 10 12 11 10 9 12 12 14 18 18 22 24 23 31 38 39 34
19 19 16 15 16 12 12 13 13 11 11 12 12 13 21 16 14 13 12 9 16 14 16 12 7 6 6 7 9 10 12 12 12 12 14 14 16 16 26 33 38 39 39 39 33
17 16 14 14 12 11 13 9 11 11 12 12 17 18 16 13 12 14 13 10 11 11 12 10 8 8 8 7 5 8 10 11 12 11 14 18 27 30 31 33 35 37 34 31 28
13 11 10 10 11 10 12 11 11 12 11 11 15 14 12 11 11 11 11 11 10 10 8 8 8 8 11 12 10 11 13 14 15 18 15 23 24 28 31 31 33 31 25 20 17
8 8 8 9 13 13 12 9 9 9 9 10 12 10 9 9 9 12 11 10 9 10 9 8 7 6 10 11 11 11 13 12 14 16 18 21 24 23 24 28 27 22 22 20 16
5 6 7 8 10 10 9 7 9 7 7 8 7 8 7 6 7 8 8 9 8 9 9 8 6 5 7 6 7 6 6 7 5 7 9 12 18 22 24 23 22 23 22 17 12
Wind_Direction
316 307 297 290 284 278 273 270 265 255 252 248 246 242 240 239 239 235 231 230 224 225 227 226 224 223 225 225 226 225 231 232 232 234 240 248 248 253 238 232 239 242 240 235 230
315 308 300 291 284 277 272 268 263 261 251 249 245 242 239 237 236 235 231 226 227 226 225 225 223 221 223 224 226 224 230 234 235 238 242 244 242 249 238 238 238 238 239 234 234
313 306 299 292 284 278 270 266 261 258 252 246 244 240 237 234 234 233 228 224 222 221 222 223 223 222 223 226 227 229 232 236 241 241 240 244 245 245 246 239 237 239 238 243 240
309 304 296 290 284 278 270 263 259 254 254 241 240 238 234 228 227 227 226 219 218 218 220 220 222 224 222 226 229 235 235 238 241 242 244 244 244 245 242 244 248 240 241 248 246
306 300 294 288 283 277 270 263 255 252 249 243 236 233 230 228 227 225 225 216 215 217 218 219 221 222 223 227 231 234 237 240 241 242 245 244 244 244 247 250 250 248 246 248 246
306 300 292 286 280 275 269 261 254 247 244 244 232 229 228 229 224 220 216 213 216 217 218 219 223 221 226 229 227 236 235 239 242 245 247 248 247 245 246 250 252 251 248 245 247
306 299 293 284 277 271 266 258 252 243 237 238 227 226 227 224 219 216 217 216 215 215 217 217 222 220 223 228 232 232 240 247 247 246 245 252 249 245 250 251 251 251 251 250 246
309 303 296 290 280 269 261 253 248 240 231 229 221 222 227 223 220 218 216 215 215 214 214 215 221 221 225 228 233 236 241 244 245 244 244 237 247 248 248 247 250 251 251 249 249
314 309 303 295 288 278 261 249 244 234 225 222 215 220 227 219 215 213 212 210 210 211 209 209 216 224 225 226 234 236 240 242 251 243 240 233 247 247 247 248 252 251 250 249 249
320 315 310 304 298 286 268 249 238 226 214 212 211 214 221 216 210 208 208 206 205 203 205 210 216 216 222 224 231 235 238 241 241 249 241 244 249 251 252 251 253 251 251 249 249
322 318 316 317 318 309 280 250 220 209 205 203 207 211 216 205 201 202 200 200 203 208 209 212 218 221 226 227 233 233 246 246 244 251 252 251 256 255 254 254 255 255 252 253 253
328 321 320 321 319 311 296 240 211 200 204 204 208 210 195 192 194 196 196 199 201 206 207 211 220 219 221 225 230 237 246 248 251 252 258 263 264 261 257 255 253 255 254 254 254
337 328 322 320 315 311 289 236 201 194 199 197 203 198 192 196 195 193 194 197 199 202 204 210 218 220 222 227 225 235 241 247 249 260 263 269 264 258 258 252 251 252 253 254 253
339 332 322 319 312 309 290 213 185 182 187 186 196 195 191 190 192 191 193 193 198 198 202 213 215 215 216 224 224 236 243 242 249 254 254 262 263 260 260 260 257 256 256 256 255
331 325 320 312 299 284 232 168 167 168 182 178 182 182 186 191 180 193 192 200 197 199 201 215 212 211 215 224 223 230 230 240 252 260 267 260 258 262 260 263 264 265 263 260 257
327 325 322 318 285 261 194 164 164 169 179 174 178 180 177 181 188 181 190 194 194 198 202 206 205 210 215 217 218 220 235 249 253 256 261 252 246 264 263 259 261 268 278 270 262
324 323 323 316 302 168 163 160 155 169 171 171 173 171 173 176 179 182 185 187 189 187 198 204 204 204 206 208 215 219 227 251 256 251 255 261 254 261 273 272 278 276 276 272 263
329 328 334 347 137 147 148 149 152 172 167 167 167 166 174 169 176 181 184 189 196 189 185 190 209 203 213 209 215 217 224 233 248 255 268 266 263 272 274 278 281 277 273 272 268
337 4 39 82 131 142 145 144 144 152 165 164 160 173 176 179 179 183 189 190 194 190 181 185 208 199 199 211 208 225 234 241 262 271 277 269 279 284 290 294 291 290 288 280 273
33 63 93 108 128 135 133 128 119 148 154 161 166 177 174 178 178 182 186 197 197 200 198 199 188 192 202 209 222 223 232 250 269 276 279 280 282 282 298 295 297 297 296 289 278
52 88 110 114 121 127 127 116 110 133 152 164 169 170 172 176 178 181 189 189 195 197 194 201 202 204 207 222 222 229 241 254 267 269 278 292 284 303 291 296 298 298 298 293 286
79 101 115 107 118 121 114 113 119 123 157 164 168 170 174 175 173 179 188 197 191 190 196 202 203 218 225 235 237 235 245 248 267 279 282 287 295 299 297 297 297 300 300 293 282
99 99 109 106 117 113 108 106 119 131 135 147 158 162 166 170 173 181 176 186 184 185 189 196 216 227 238 254 244 242 247 252 267 287 279 290 298 307 314 306 303 302 299 291 281
99 100 97 107 121 116 117 97 116 123 121 123 135 137 152 171 168 173 174 177 177 185 188 196 215 222 229 242 247 248 256 257 253 277 287 276 294 306 309 311 311 308 304 296 280
97 105 106 103 108 123 132 109 102 109 114 123 142 145 142 154 158 166 166 178 184 192 198 209 231 248 256 256 254 256 264 265 265 273 280 296 301 310 317 322 321 319 318 307 300
99 108 117 114 120 114 123 120 112 112 117 118 124 127 134 150 181 172 173 184 195 202 205 223 248 260 266 256 251 259 262 261 269 275 279 290 302 315 323 327 334 335 331 313 303
119 125 135 145 138 136 144 139 134 130 112 120 135 142 137 155 151 167 178 187 190 194 208 215 232 250 246 270 289 269 259 243 276 296 298 307 315 327 332 340 346 347 345 337 303